Hourly Data Report for March 21, 2017

MIRAMICHI RCS
NEW BRUNSWICK

47°00'34.000" N
65°27'54.000" W
33.00 m
8100989
71744
ACQ

Download Data

Hourly Data (March 2017)
Hourly Data Report for March 21, 2017
TIME
LST
Temp Definition
°C
Dew Point Definition
°C
Rel Hum Definition
%
Precip. Amount Definition
mm

Wind Dir Definition
10's deg

Wind Spd Definition
km/h
Visibility Definition
km
Stn Press Definition
kPa
Hmdx Definition


Wind Chill Definition


Weather Definition


00:00 -4.4 -6.0 89 0.0 5 7   100.82   -8 LegendNANA
01:00 -5.0 -6.7 88 0.0 33 8   100.74   -9 LegendNANA
02:00 -5.9 -7.4 89 0.0 36 4   100.65   -8 LegendNANA
03:00 -6.5 -7.8 90 0.0 36 7   100.57   -10 LegendNANA
04:00 -6.8 -8.0 91 0.0 36 3   100.52   -8 LegendNANA
05:00 -6.7 -8.0 90 0.0 34 3   100.48   -8 LegendNANA
06:00 -6.9 -7.9 93 0.0 30 4   100.49   -9 LegendNANA
07:00 -6.7 -7.8 92 0.0 23 3   100.46   -8 LegendNANA
08:00 -6.2 -7.8 89 0.0 27 7   100.41   -10 LegendNANA
09:00 -4.1 -7.0 80 0.0 26 9   100.34   -8 LegendNANA
10:00 -2.1 -6.5 71 0.0 26 10   100.27   -6 LegendNANA
11:00 3.2 -6.9 48 0.0 35 9   100.19     LegendNANA
12:00 5.1 -7.1 41 0.0 36 10   100.14     LegendNANA
13:00 6.4 -6.1 40 0.0 36 10   100.07     LegendNANA
14:00 7.0 -7.4 35 0.0 1 13   100.00     LegendNANA
15:00 7.4 -8.2 32 0.0 3 10   99.91     LegendNANA
16:00 8.3 -10.6 25 0.0 35 9   99.90     LegendNANA
17:00 8.0 -11.5 24 0.0 33 11   99.94     LegendNANA
18:00 6.6 -13.4 23 0.0 36 8   100.04     LegendNANA
19:00 3.4 -11.5 32 0.0 34 2   100.11     LegendNANA
20:00 -1.6 -9.6 54 0.0 28 2   100.17   -2 LegendNANA
21:00 -2.6 -8.3 64 0.0   0   100.18     LegendNANA
22:00 -4.0 -8.1 73 0.0 25 2   100.20   -5 LegendNANA
23:00 -3.8 -9.1 67 0.0 35 5   100.20   -6 LegendNANA

Notes on Data Quality.

Legend

  • E = Estimated
  • M = Missing
  • NA = Not Available*
  • [empty] = Indicates an unobserved value
Date modified: